Regional Weather Roundup
Issued by NWS Midland/Odessa, TX

Home | Current Version | Previous Version | Text Only | Print | Product List | Glossary On
Versions: 1 2 3 4 5 6 7 8 9 10 11 12 13 14 15 16 17 18 19 20 21 22 23 24 25 26 27 28 29 30 31 32 33 34 35 36 37 38 39 40 41 42 43 44 45 46 47 48 49 50
000
ASUS44 KMAF 271010
RWRMAF
MIDLAND AREA WEATHER ROUNDUP
NATIONAL WEATHER SERVICE MIDLAND TX
500 AM CDT FRI MAR 27 2015

...IN SOUTHWEST TEXAS AND SOUTHEAST NEW MEXICO...

CITY           SKY/WX    TMP DP  RH WIND       PRES   REMARKS
ALPINE         CLEAR     40  31  69 SW8       30.31S WCI  34
ANDREWS        FAIR      47  26  44 W10       30.20R
ARTESIA        CLEAR     39  25  56 SW5       30.18F WCI  36
BIG SPRING     CLEAR     43  32  64 SE7       30.20F WCI  39
CARLSBAD       CLEAR     39  31  72 CALM      30.16F
DRYDEN           N/A     46  38  73 W8        30.20F
FORT STOCKTON  CLEAR     46  34  62 SW14      30.20F WCI  40
GUAD PASS      PTCLDY    46  26  45 SW17      30.27F WCI  39
HOBBS          FAIR      39  25  56 SW7       30.20S WCI  34
MARFA          CLEAR     30  28  93 N3        30.29F
MIDLAND AIRPK  CLEAR     48  28  46 SW6       30.19F
MIDLAND INTL   CLEAR     48  29  47 SW9       30.18F
ODESSA         CLEAR     43  29  57 SW6       30.19F WCI  39
PECOS          CLEAR     38  34  86 CALM      30.20S
PRESIDIO       FAIR      51  36  55 N8        30.25S
SEMINOLE       CLEAR     39  26  59 W7        30.21R WCI  34
SNYDER         CLEAR     41  27  57 SW8       30.17F WCI  36
WINK           CLEAR     41  31  67 CALM      30.19S
$$
...OTHER STATIONS IN TEXAS...

CITY           SKY/WX    TMP DP  RH WIND       PRES   REMARKS
ABILENE        CLEAR     48  29  47 SW7       30.14F
AMARILLO       CLEAR     46  19  34 SW5       30.15F
AUSTIN         CLEAR     41  37  86 W5        30.15F WCI  38
BROWNSVILLE    PTCLDY    57  51  80 NW7       30.19R
CORPUS CHRISTI PTCLDY    54  44  69 N8        30.19F
DALLAS FTW     CLEAR     48  36  63 SW8       30.07F
DEL RIO        CLEAR     47  41  80 NW3       30.22F
EL PASO        CLEAR     52  28  39 SE3       30.23S
HOUSTON INT    CLEAR     47  41  80 CALM      30.12S
LUBBOCK        CLEAR     36  22  56 W8        30.16S WCI  30
SAN ANGELO     CLEAR     40  32  73 W3        30.17F
SAN ANTONIO    CLEAR     46  35  65 NW5       30.18F
WACO           CLEAR     39  37  92 SW7       30.13S WCI  34
WICHITA FALLS  NOT AVBL
$$
...OTHER LOCATIONS IN NEW MEXICO...

CITY           SKY/WX    TMP DP  RH WIND       PRES   REMARKS
ALAMAGORDO     PTCLDY    45  19  36 SE5       30.24S
ALBUQUERQUE    PTCLDY    46  19  34 E6        30.25F
CANNON AFB     CLEAR     39  24  53 CALM      30.17F
CLOVIS         CLEAR     41  23  48 W10       30.17F WCI  35
HOLLOMAN AFB   PTCLDY    45  21  38 E2        30.22S
ROSWELL        PTCLDY    37  27  67 VRB3      30.15F
RUIDOSO        PTCLDY    45  14  29 CALM      30.29S
SANTA FE       CLEAR     36  16  44 N3        30.26S
TRUTH OR CONSE CLEAR     43  20  39 E5        30.24F
TUCUMCARI      CLEAR     38  23  55 SW6       30.14F WCI  33
$$


USA.gov is the U.S. government's official web portal to all federal, state and local government web resources and services.